Weather Roundup
Issued by NWS

Home | Current Version | Previous Version | Graphics & Text | Print | Product List | Glossary Off
Versions: 1 2 3 4 5 6 7 8 9 10 11 12 13 14 15 16 17 18 19 20 21 22 23 24 25 26 27 28 29 30 31 32 33 34 35 36 37 38 39 40 41 42 43 44 45 46 47 48 49 50

000
NZUS93 KARX 130210
HRRWXR

CURRENT HOURLY OBSERVATIONS ACROSS
MUCH OF THE UPPER MISSISSIPPI VALLEY
NATIONAL WEATHER SERVICE LA CROSSE WI
900 PM CDT SAT JUL 12 2014


...SOUTHEAST MINNESOTA...


CITY           SKY/WX    TMP DP  RH WIND       PRES   REMARKS
ROCHESTER      CLOUDY    70  64  81 NW8       29.97R
ROCHESTER/MAYO MOCLDY    71  64  79 W7        29.95S
WINONA         CLOUDY    70  66  88 CALM      29.94R
AUSTIN         CLEAR     70  64  83 NW6       29.96R
ALBERT LEA     CLEAR     70  66  88 NW3       29.97R
DODGE CENTER   CLEAR     70  64  83 NW5       29.97S
PRESTON        CLOUDY    67  66  97 NW3       29.95R
OWATONNA       CLEAR     70  64  83 W5        29.97S
FARIBAULT      CLEAR     72  63  73 CALM      29.96S
$$

...ELSEWHERE IN MINNESOTA...


CITY           SKY/WX    TMP DP  RH WIND       PRES   REMARKS
MINNEAPOLIS    PTCLDY    72  64  76 W6        29.93S
INTNL FALLS    CLOUDY    58  52  80 W6        29.84F
DULUTH         PTCLDY    68  59  73 SW9       29.86F
RED WING       CLEAR     70  64  83 CALM      29.92S
REDWOOD FALLS  CLEAR     72  66  81 W5        29.96F
MANKATO        PTCLDY    72  64  78 W6        29.97S
WORTHINGTON    PTCLDY    72  64  78 N5        30.02S
FAIRMONT       CLEAR     72  63  73 N3        29.99R
$$

...SOUTHWEST WISCONSIN...


CITY           SKY/WX    TMP DP  RH WIND       PRES   REMARKS
LA CROSSE      PTCLDY    67  65  93 CALM      29.90F
PRAIRIE DU CHI CLOUDY    67  64  88 CALM      29.90S
BOSCOBEL       LGT RAIN  69  65  86 CALM      29.91R
LONE ROCK      CLOUDY    72  69  90 N7        29.89S
PLATTEVILLE    CLOUDY    69  67  92 N7        29.92R
FORT MC COY    MOCLDY    65  64  96 CALM      29.90S FOG
VIROQUA        FAIR      64  64 100 CALM      29.91F
WIS DELLS      RAIN      65  63  93 N3        29.89S
$$

...ELSEWHERE IN WISCONSIN...


CITY           SKY/WX    TMP DP  RH WIND       PRES   REMARKS
MILWAUKEE      LGT RAIN  70  68  93 E5        29.86R FOG
MADISON        LGT RAIN  74  71  91 CALM      29.85F FOG
GREEN BAY      LGT RAIN  68  61  78 N10       29.86F
EAU CLAIRE     PTCLDY    66  65  96 S6        29.90F
BLACK RVR FLS  CLOUDY    66  66 100 CALM      29.90S
MEDFORD        CLOUDY    63  62  97 CALM      29.91F
WAUSAU         LGT RAIN  65  64  97 W3        29.88F
WIS RAPIDS     LGT RAIN  66  64  93 CALM      29.89F
MARSHFIELD     CLOUDY    65  64  97 NW7       29.90F
RICE LAKE      PTCLDY    67  65  93 CALM      29.92S
$$

...NORTHEAST IOWA...


CITY           SKY/WX    TMP DP  RH WIND       PRES   REMARKS
WATERLOO       MOCLDY    67  65  93 W3        29.93R
DUBUQUE        LGT RAIN  68  68 100 NE6       29.93R
DECORAH          N/A    N/A N/A N/A MISG        N/A
MASON CITY     CLEAR     69  67  93 W5        29.98R
CHARLES CITY   MOCLDY    66  66 100 W6        29.96R
OELWEIN        CLOUDY    66  66 100 N3        29.95R
$$

...ELSEWHERE IN IOWA...


CITY           SKY/WX    TMP DP  RH WIND       PRES   REMARKS
DES MOINES     CLOUDY    74  67  78 N9        29.95R
IOWA CITY      CLOUDY    74  73  97 W15       29.90S
FORT DODGE     CLEAR     70  66  88 CALM      29.99R
MARSHALLTOWN   PTCLDY    67  66  97 N3        29.94S
CEDAR RAPIDS   CLOUDY    70  67  90 N14       29.92R
$$

...NORTHERN ILLINOIS...


CITY           SKY/WX    TMP DP  RH WIND       PRES   REMARKS
CHICAGO-OHARE  CLOUDY    78  71  79 S9        29.87F
DUPAGE         CLOUDY    77  74  90 S8        29.86F
CHICAGO-MIDWAY LGT RAIN  80  76  87 S8        29.87F
MOLINE         TSTM      80  75  84 SW13G25   29.85F
ROCKFORD       CLOUDY    77  73  87 S7        29.86F THUNDER
STERLING       MOCLDY    79  75  89 S3        29.83F
PEORIA         MOCLDY    84  73  69 SW12      29.90F HX  90
$$

NOTE: "FAIR" INDICATES FEW OR NO CLOUDS BELOW 12,000 FEET WITH NO
SIGNIFICANT WEATHER AND/OR OBSTRUCTIONS TO VISIBILITY. WIND
SPEEDS ARE IN MILES-PER-HOUR.



USA.gov is the U.S. government's official web portal to all federal, state and local government web resources and services.